Weather History for Leesburg, FL

Change the Weather History Date:

Sunday, November 21, 2010

  Actual Average Record
Temperature  
Mean Temperature 69 °F -  
Max Temperature 78 °F 75 °F 85 °F (1973)
Min Temperature 60 °F 53 °F 33 °F (1968)
Cooling Degree Days 4    
Growing Degree Days 19 (Base 50)    
Moisture  
Dew Point 60 °F    
Average Humidity 79    
Maximum Humidity 90    
Minimum Humidity 48    
Precipitation  
Precipitation 0.00 in - - ()
Sea Level Pressure  
Sea Level Pressure 30.29 in    
Wind  
Wind Speed 6 mph (ENE)    
Max Wind Speed 13 mph    
Max Gust Speed 18 mph    
Visibility 9 miles    
Events Rain    
Averages and records for this station are not official NWS values.
T = Trace of Precipitation, MM = Missing Value Source: NWS Daily Summary

Daily Weather History Graph

Daily Weather History Graph

Search for Another Location

Airport:

Trip Planner

Search our weather history database for the weather conditions in past years. The results will help you decide how hot, cold, wet, or windy it might be!

Date:

Astronomy

Nov. 21, 2010 Rise Set
Actual Time 6:55 AM EST 5:30 PM EST
Civil Twilight 6:29 AM EST 5:56 PM EST
Nautical Twilight 6:00 AM EST 6:25 PM EST
Astronomical Twilight 5:32 AM EST 6:53 PM EST
Moon 5:26 PM EST (11/21) 6:49 AM EST (11/21)
Length of Visible Light 11h 26m
Length of Day
10h 35m
Full, 100% of the Moon is Illuminated
Nov 21
Full
Nov 21
Full
Nov 28
Last Quarter
Dec 5
New
Dec 13
First Quarter

Hourly Weather History & Observations

Time (EST) Temp. Dew Point Humidity Pressure Visibility Wind Dir Wind Speed Gust Speed Precip Events Conditions
12:53 AM 61.0 °F 57.0 °F 87% 30.29 in 10.0 mi ENE 3.5 mph - N/A   Mostly Cloudy
1:53 AM 61.0 °F 57.9 °F 90% 30.27 in 10.0 mi ENE 6.9 mph - N/A   Clear
2:53 AM 61.0 °F 57.9 °F 90% 30.26 in 10.0 mi NE 6.9 mph - N/A   Clear
3:53 AM 60.1 °F 57.0 °F 90% 30.26 in 10.0 mi NE 6.9 mph - N/A   Clear
4:53 AM 60.1 °F 57.0 °F 90% 30.27 in 10.0 mi NE 5.8 mph - N/A   Scattered Clouds
5:53 AM 62.1 °F 59.0 °F 90% 30.28 in 10.0 mi NE 5.8 mph - N/A   Overcast
7:53 AM 64.0 °F 60.1 °F 87% 30.32 in 10.0 mi NE 5.8 mph - N/A   Overcast
8:53 AM 70.0 °F 60.1 °F 71% 30.32 in 10.0 mi ENE 9.2 mph - N/A   Mostly Cloudy
9:53 AM 73.0 °F 59.0 °F 61% 30.32 in 10.0 mi East 10.4 mph - N/A   Mostly Cloudy
10:53 AM 78.1 °F 57.0 °F 48% 30.32 in 10.0 mi East 12.7 mph 17.3 mph N/A   Clear
11:53 AM 77.0 °F 55.9 °F 48% 30.31 in 10.0 mi East 10.4 mph 18.4 mph N/A   Mostly Cloudy
12:53 PM 73.9 °F 59.0 °F 59% 30.29 in 10.0 mi East 8.1 mph - 0.00 in Rain Light Rain
1:53 PM 75.9 °F 57.0 °F 52% 30.27 in 10.0 mi East 8.1 mph - 0.00 in   Overcast
2:53 PM 73.0 °F 60.1 °F 64% 30.27 in 10.0 mi East 8.1 mph - 0.00 in   Overcast
3:51 PM 66.2 °F 62.6 °F 88% 30.29 in 1.8 mi East 9.2 mph - 0.00 in Rain Light Rain
3:53 PM 66.0 °F 62.1 °F 87% 30.30 in 1.8 mi East 6.9 mph - 0.00 in Rain Light Rain
3:58 PM 66.2 °F 62.6 °F 88% 30.29 in 3.0 mi East 6.9 mph - 0.00 in Rain Light Rain
4:53 PM 68.0 °F 62.1 °F 81% 30.29 in 10.0 mi East 5.8 mph - 0.00 in   Overcast
5:53 PM 68.0 °F 61.0 °F 78% 30.29 in 10.0 mi ENE 6.9 mph - N/A   Overcast
6:53 PM 66.9 °F 62.1 °F 84% 30.30 in 10.0 mi East 4.6 mph - N/A   Overcast
7:53 PM 66.9 °F 62.1 °F 84% 30.30 in 10.0 mi ENE 3.5 mph - N/A   Overcast
8:53 PM 66.9 °F 62.1 °F 84% 30.30 in 10.0 mi East 5.8 mph - N/A   Overcast
9:53 PM 64.9 °F 61.0 °F 87% 30.30 in 10.0 mi East 3.5 mph - N/A   Clear
10:53 PM 64.0 °F 61.0 °F 90% 30.30 in 10.0 mi Calm Calm - N/A   Clear
11:53 PM 64.0 °F 60.1 °F 87% 30.29 in 10.0 mi East 3.5 mph - N/A   Clear